Total_Precipitation_Accumulation
0.10 0.18 0.21 0.23 0.21 0.19 0.14 0.12 0.18 0.27 0.43 0.58 0.69 0.93 0.80 0.78 0.86 0.92 0.78 0.72 0.64 0.70 0.82 0.98 0.98 0.91 0.94 1.01 1.06 1.20 1.21 1.18 1.24 1.35 1.38 1.42 1.42 1.46 1.53 1.57 1.56 1.71 1.74 1.84
0.11 0.14 0.15 0.17 0.19 0.16 0.12 0.10 0.11 0.21 0.44 0.63 0.73 0.80 0.78 0.66 0.70 0.91 0.81 0.71 0.70 0.81 0.97 0.97 0.88 0.85 0.88 0.86 0.95 1.11 1.20 1.29 1.37 1.39 1.32 1.39 1.42 1.43 1.47 1.54 1.61 1.70 1.76 1.88
0.21 0.17 0.19 0.26 0.21 0.19 0.16 0.14 0.15 0.28 0.45 0.62 0.77 0.72 0.78 0.72 0.67 0.67 0.64 0.64 0.72 0.80 0.87 0.90 0.90 0.86 0.82 0.77 0.89 1.17 1.25 1.26 1.44 1.54 1.46 1.54 1.58 1.58 1.56 1.56 1.68 1.77 1.91 1.97
0.28 0.31 0.38 0.30 0.26 0.25 0.27 0.28 0.26 0.30 0.42 0.63 0.84 0.78 0.75 0.76 0.74 0.67 0.55 0.60 0.70 0.73 0.74 0.78 0.81 0.81 0.81 0.85 0.90 1.13 1.30 1.38 1.62 1.77 1.68 1.70 1.72 1.74 1.77 1.82 1.85 1.96 2.00 1.92
0.43 0.44 0.47 0.41 0.38 0.40 0.48 0.59 0.50 0.51 0.64 0.70 0.69 0.72 0.79 0.74 0.68 0.63 0.61 0.65 0.69 0.75 0.80 0.87 0.94 0.96 0.96 1.06 1.17 1.32 1.45 1.56 1.78 2.02 2.16 2.12 1.98 2.06 2.14 2.12 2.10 2.16 2.19 2.13
0.58 0.65 0.74 0.69 0.55 0.51 0.66 1.06 0.87 0.70 0.73 0.74 0.75 0.95 0.96 0.70 0.62 0.59 0.63 0.72 0.86 1.00 0.99 1.03 1.14 1.10 1.12 1.26 1.47 1.62 1.63 1.64 1.79 2.02 2.14 2.12 2.14 2.35 2.45 2.37 2.27 2.28 2.17 2.03
0.66 0.76 0.77 0.69 0.61 0.64 1.16 1.56 1.11 0.94 0.95 0.99 1.00 0.96 0.83 0.75 0.77 0.69 0.67 0.76 0.82 0.85 0.98 1.11 1.22 1.29 1.41 1.45 1.53 1.58 1.61 1.64 1.77 2.02 2.31 2.28 2.31 2.39 2.45 2.45 2.44 2.45 2.34 2.22
0.79 1.03 1.16 0.75 0.67 1.03 1.41 1.29 1.33 1.30 1.27 1.21 1.06 0.88 0.77 0.76 0.82 0.75 0.73 0.79 0.80 0.79 0.90 1.08 1.28 1.49 1.56 1.53 1.55 1.65 1.66 1.66 1.75 2.02 2.15 2.21 2.34 2.38 2.47 2.56 2.53 2.49 2.48 2.32
1.07 1.29 1.18 0.93 1.01 1.07 1.16 1.27 1.32 1.26 1.26 1.23 1.17 1.05 0.94 0.89 0.86 0.83 0.89 0.88 0.89 0.90 0.98 1.10 1.27 1.49 1.67 1.68 1.66 1.61 1.58 1.55 1.64 1.81 1.91 2.06 2.15 2.09 2.15 2.28 2.27 2.29 2.30 2.25
1.48 1.48 1.30 1.15 1.08 1.06 1.06 1.12 1.09 1.04 1.00 0.99 0.99 0.97 0.94 0.95 0.98 1.01 1.06 1.03 1.03 1.07 1.11 1.18 1.27 1.45 1.62 1.62 1.63 1.61 1.53 1.48 1.59 1.80 1.90 1.98 2.04 2.02 2.07 2.12 2.19 2.26 2.28 2.22
1.87 1.84 1.64 1.50 1.30 1.23 1.10 1.11 1.10 1.01 0.97 0.92 0.84 0.84 0.84 0.83 0.86 0.93 1.02 1.05 1.06 1.11 1.17 1.20 1.25 1.43 1.56 1.59 1.64 1.70 1.65 1.59 1.68 1.79 1.87 2.02 2.08 2.10 2.10 2.09 2.07 2.07 2.07 2.02
2.04 1.85 1.74 1.70 1.37 1.31 1.35 1.24 1.12 1.11 1.07 0.98 0.84 0.80 0.82 0.80 0.82 0.86 0.96 1.10 1.16 1.24 1.24 1.21 1.22 1.35 1.47 1.65 1.81 1.84 1.78 1.73 1.70 1.66 1.74 1.80 1.84 1.79 1.74 1.69 1.67 1.61 1.60 1.52
1.42 1.48 1.57 1.68 1.51 1.32 1.30 1.23 1.15 1.13 1.10 1.01 0.91 0.85 0.75 0.71 0.78 0.86 0.96 1.09 1.23 1.34 1.28 1.23 1.26 1.35 1.44 1.57 1.79 1.89 1.82 1.69 1.57 1.51 1.51 1.53 1.62 1.70 1.74 1.64 1.53 1.42 1.36 1.25
1.44 1.55 1.66 1.62 1.61 1.54 1.33 1.23 1.14 1.09 1.05 0.97 0.92 0.87 0.80 0.79 0.79 0.89 1.04 1.12 1.13 1.19 1.21 1.19 1.18 1.26 1.36 1.51 1.75 1.88 1.80 1.67 1.47 1.38 1.37 1.37 1.49 1.59 1.62 1.63 1.58 1.38 1.22 1.12
1.62 1.60 1.59 1.50 1.47 1.54 1.49 1.41 1.29 1.18 1.07 1.02 0.98 0.96 0.91 0.86 0.85 0.91 1.00 1.16 1.28 1.29 1.21 1.19 1.21 1.23 1.29 1.43 1.58 1.72 1.74 1.62 1.47 1.42 1.41 1.33 1.27 1.32 1.37 1.41 1.47 1.40 1.22 1.14
1.54 1.44 1.43 1.47 1.49 1.43 1.36 1.39 1.35 1.22 1.01 0.96 0.99 0.98 0.92 0.89 0.92 0.99 1.06 1.21 1.47 1.62 1.49 1.33 1.25 1.22 1.25 1.38 1.46 1.44 1.44 1.39 1.34 1.34 1.35 1.30 1.25 1.26 1.33 1.39 1.45 1.41 1.28 1.18
1.33 1.25 1.25 1.31 1.36 1.41 1.37 1.27 1.21 1.14 1.03 0.98 0.97 0.94 0.92 0.94 1.05 1.21 1.29 1.35 1.41 1.42 1.42 1.43 1.34 1.25 1.29 1.39 1.46 1.38 1.25 1.19 1.13 1.13 1.15 1.14 1.15 1.22 1.35 1.42 1.45 1.35 1.16 1.02
1.00 1.01 1.08 1.12 1.17 1.30 1.31 1.17 1.06 1.03 1.01 1.03 1.01 1.00 1.00 1.05 1.25 1.48 1.52 1.46 1.44 1.32 1.23 1.25 1.28 1.28 1.36 1.43 1.50 1.47 1.32 1.16 1.03 0.99 1.02 1.05 1.12 1.23 1.31 1.30 1.23 1.17 1.06 0.97
0.79 0.83 0.89 0.94 0.98 1.04 1.09 1.09 1.10 1.04 0.98 1.01 1.11 1.16 1.17 1.18 1.36 1.60 1.66 1.66 1.64 1.47 1.22 1.10 1.14 1.16 1.24 1.32 1.40 1.37 1.16 0.97 0.81 0.77 0.80 0.91 1.06 1.23 1.28 1.19 1.08 1.03 1.02 0.98
0.76 0.73 0.74 0.78 0.81 0.85 0.91 0.94 0.94 1.00 1.01 1.03 1.09 1.15 1.24 1.29 1.44 1.64 1.74 1.77 1.66 1.45 1.24 1.07 0.99 0.96 1.01 1.15 1.26 1.23 1.08 0.90 0.75 0.70 0.73 0.83 1.00 1.19 1.20 1.09 1.03 1.05 1.05 1.05
0.74 0.72 0.71 0.75 0.80 0.78 0.81 0.85 0.87 0.97 1.07 1.08 1.16 1.27 1.31 1.28 1.39 1.64 1.85 1.86 1.57 1.27 1.10 1.05 0.92 0.84 0.88 1.05 1.10 1.03 0.97 0.89 0.78 0.75 0.80 0.93 1.11 1.20 1.13 1.04 1.00 0.99 0.99 1.06
0.82 0.80 0.75 0.76 0.82 0.83 0.84 0.90 0.94 1.00 1.07 1.06 1.14 1.27 1.32 1.40 1.39 1.39 1.48 1.66 1.52 1.29 1.02 0.88 0.84 0.87 0.94 1.03 1.00 0.94 0.92 0.89 0.84 0.81 0.90 1.05 1.14 1.13 1.02 0.98 1.03 0.99 0.96 1.01
0.88 0.85 0.80 0.77 0.82 0.87 0.84 0.89 0.95 1.05 1.15 1.11 1.10 1.15 1.28 1.39 1.38 1.44 1.38 1.27 1.27 1.22 1.01 0.86 0.83 0.89 0.95 0.96 0.96 0.93 0.94 0.90 0.83 0.83 0.89 0.98 1.05 1.06 1.04 1.04 1.06 1.04 1.03 1.01
0.85 0.83 0.82 0.83 0.84 0.92 0.97 0.94 0.95 1.02 1.09 1.02 0.96 0.97 1.11 1.25 1.20 1.15 1.21 1.27 1.23 1.18 1.02 0.95 0.89 0.86 0.88 0.86 0.90 0.94 0.96 0.89 0.81 0.78 0.80 0.86 0.94 1.02 1.11 1.15 1.13 1.07 1.02 0.98
0.89 0.87 0.84 0.90 1.00 1.09 1.08 1.04 1.08 1.10 1.10 1.02 0.94 0.90 0.94 1.12 1.19 1.07 1.07 1.12 1.13 1.08 0.98 0.94 0.92 0.96 0.94 0.94 0.92 0.91 0.86 0.77 0.72 0.70 0.75 0.86 0.91 0.97 1.03 1.04 0.99 0.98 0.97 0.98
1.02 0.97 0.94 0.97 1.01 1.07 1.08 1.20 1.31 1.29 1.30 1.25 1.07 0.88 0.86 0.94 0.99 1.03 1.06 1.06 1.07 1.09 0.96 0.88 0.85 0.91 0.96 1.02 0.98 0.87 0.76 0.71 0.71 0.72 0.77 0.84 0.88 0.93 0.98 0.98 0.94 0.97 0.98 0.97
1.00 0.97 0.97 1.00 1.03 1.01 1.01 1.09 1.21 1.32 1.44 1.43 1.19 0.91 0.85 0.89 0.97 1.03 1.07 1.11 1.15 1.15 1.07 0.93 0.85 0.86 0.90 0.94 0.94 0.87 0.79 0.73 0.72 0.74 0.76 0.76 0.80 0.90 0.99 1.03 0.97 0.97 1.00 0.97